Vorticity
12 8 9 9 9 10 12 13 20 10 14 13 16 8 7 17 3 0 17 2 -2 -1 -18 9 9 3 7 16 13 13 8 14 13 6 7 5 -8 -5 13 -9 19 1 0 15
9 10 9 10 10 10 11 12 19 13 8 10 10 10 8 14 27 12 21 -1 10 12 15 11 11 14 -0 -7 -7 8 18 16 10 23 27 18 4 12 12 8 -8 10 -13 -11
10 10 10 10 10 11 13 14 10 11 12 9 6 8 21 12 13 5 27 11 9 10 9 -3 -6 8 12 11 11 14 15 11 -21 -16 5 10 12 21 17 14 5 -12 -15 -14
10 9 8 9 10 11 11 10 10 6 10 5 11 0 -3 -7 6 15 7 14 20 16 14 38 15 8 -1 5 8 4 3 5 9 11 10 6 -1 -5 -6 2 -2 -2 -8 1
7 6 7 9 12 13 12 12 9 12 8 9 17 19 17 13 16 -5 14 20 16 20 4 1 -4 5 16 28 22 8 8 5 11 10 6 3 13 3 8 5 12 12 14 8
7 8 9 10 11 13 12 17 10 7 8 14 11 -1 5 12 21 20 9 5 9 12 11 12 11 12 11 6 -4 4 16 19 21 29 17 19 34 25 26 33 28 18 20 31
8 9 9 9 9 11 13 13 13 16 9 8 8 13 14 3 1 -0 -6 7 15 2 11 19 18 10 13 7 5 10 9 9 9 10 5 19 6 6 19 13 24 22 5 1
7 7 8 9 10 9 11 12 13 12 11 14 14 11 7 9 12 14 12 6 0 -0 0 4 26 24 24 27 27 10 12 11 -2 -4 1 -27 18 -3 -12 17 6 30 14 24
7 7 7 8 8 8 11 12 12 14 9 17 14 12 11 8 9 9 4 5 7 11 6 14 11 4 1 15 13 22 38 18 -13 7 4 -1 19 16 28 9 19 20 20 -18
6 7 8 10 7 9 10 11 7 9 13 18 12 9 9 14 16 11 13 6 8 2 7 11 10 8 1 11 6 6 -4 23 11 10 -13 19 12 -6 -3 2 13 -3 -16 -23
5 7 9 7 8 9 13 11 8 4 1 5 6 10 14 15 10 5 6 14 26 21 23 12 13 17 7 12 4 2 5 -4 16 30 15 12 20 24 -0 11 5 12 -7 5
8 11 9 11 14 16 17 10 9 12 16 9 7 10 11 10 7 5 4 5 -11 -13 4 12 12 5 4 7 1 29 15 -6 -8 -10 29 -12 11 11 17 16 7 -6 -12 4
9 15 18 17 16 20 12 9 3 7 3 5 34 23 1 43 22 16 15 23 13 7 8 8 9 -2 -11 -10 7 6 5 4 7 8 31 10 -28 -18 -12 -15 -19 -13 -3 17
15 13 11 11 7 9 8 12 13 9 13 11 35 47 21 -2 3 9 4 11 5 7 10 10 9 9 15 11 12 1 -1 7 4 3 -2 -3 -2 9 6 13 6 1 -1 8
9 13 15 16 15 15 10 11 10 9 11 -7 -17 -33 23 28 7 -0 13 -1 3 1 9 13 14 20 11 10 18 12 19 14 0 -4 2 6 7 15 21 17 21 21 15 11
18 15 11 12 19 10 15 13 18 22 18 11 9 -0 2 15 33 14 11 12 7 9 24 1 -5 -1 2 6 6 5 16 4 8 13 9 12 19 13 18 21 17 20 11 10
8 13 15 13 14 9 10 12 9 10 11 11 24 25 -1 6 7 5 15 19 7 10 13 10 9 9 15 5 -10 8 16 14 12 10 9 13 32 33 32 6 18 16 8 13
11 12 12 19 18 11 10 5 11 9 9 14 21 -7 10 2 10 4 18 5 13 4 17 23 11 20 25 2 33 31 41 45 34 41 25 39 11 1 17 23 17 23 16 19
12 14 9 8 10 7 5 6 7 8 7 -4 -7 -7 8 -4 -2 17 10 11 4 30 17 30 36 22 -18 6 -11 -6 9 23 27 17 40 37 36 31 15 8 13 12 14 16
10 7 8 10 3 9 11 11 17 33 23 1 1 22 17 24 9 9 28 21 29 3 29 36 34 -4 26 41 26 9 15 35 25 29 10 -2 -0 15 24 31 24 24 14 10
11 8 5 5 3 7 16 21 12 11 10 8 0 19 9 2 1 2 46 11 15 17 19 15 12 13 -49 20 28 23 30 23 23 18 19 17 19 20 18 19 18 14 14 15
14 8 8 4 6 29 17 14 10 12 12 -5 4 3 5 3 8 44 22 24 21 2 10 15 13 -31 17 24 24 28 18 15 19 26 24 25 13 20 14 8 12 18 17 10
12 13 18 19 12 11 5 16 13 4 6 1 4 6 6 18 34 23 17 15 5 16 18 10 -20 1 23 24 25 29 10 22 20 41 32 27 22 11 19 12 -7 12 15 20
10 17 14 11 11 9 7 9 -0 8 5 4 8 9 -4 20 54 23 9 8 17 11 5 -28 -9 11 17 21 22 16 12 23 26 34 25 13 10 5 9 37 27 17 17 11
8 21 15 19 11 -2 4 12 -3 -1 8 8 12 6 14 34 20 15 8 20 7 -1 -54 8 10 16 21 19 15 13 20 21 23 27 12 2 19 48 16 12 19 26 16 16
10 -1 -11 -5 -6 11 -11 4 12 7 7 8 6 12 31 21 9 12 13 -0 6 -46 6 11 16 19 19 20 25 24 17 13 30 19 15 25 29 -0 -3 8 12 12 10 5
-2 -6 -6 21 11 12 10 1 9 12 11 6 13 19 9 1 32 3 13 -31 -11 -0 11 22 18 16 17 25 22 22 16 12 18 32 33 13 -1 -1 8 13 26 32 24 14
Height
3067 3067 3065 3064 3064 3062 3060 3061 3061 3060 3064 3065 3065 3065 3066 3067 3066 3069 3070 3068 3066 3069 3070 3072 3072 3072 3071 3071 3071 3072 3072 3073 3072 3073 3073 3074 3075 3075 3076 3076 3076 3073 3071 3056
3063 3062 3061 3060 3058 3058 3056 3057 3059 3056 3058 3061 3063 3064 3065 3064 3063 3065 3066 3064 3064 3065 3066 3069 3069 3068 3069 3069 3070 3069 3071 3071 3071 3070 3071 3070 3069 3069 3069 3070 3070 3066 3065 3053
3058 3057 3056 3054 3053 3053 3054 3053 3055 3052 3055 3058 3060 3061 3060 3059 3060 3061 3063 3060 3061 3061 3061 3063 3063 3064 3065 3065 3065 3066 3067 3067 3066 3064 3064 3064 3065 3065 3064 3065 3064 3058 3055 3046
3052 3051 3051 3051 3049 3048 3049 3048 3049 3049 3051 3052 3054 3057 3056 3054 3055 3058 3060 3057 3056 3056 3057 3057 3057 3059 3060 3061 3062 3063 3064 3063 3061 3061 3060 3060 3061 3061 3059 3057 3056 3055 3048 3046
3047 3046 3047 3045 3045 3045 3045 3045 3044 3047 3048 3052 3051 3052 3053 3051 3049 3054 3056 3055 3053 3053 3054 3054 3053 3053 3054 3054 3055 3057 3058 3057 3056 3054 3055 3055 3052 3051 3049 3047 3047 3046 3043 3039
3043 3044 3042 3042 3041 3042 3039 3041 3040 3042 3044 3046 3049 3049 3048 3051 3045 3049 3051 3051 3049 3049 3049 3048 3048 3048 3049 3050 3051 3051 3053 3053 3052 3049 3050 3048 3044 3039 3038 3037 3039 3037 3036 3037
3040 3039 3040 3038 3037 3037 3035 3037 3036 3037 3038 3041 3042 3045 3043 3047 3044 3044 3047 3047 3046 3046 3044 3043 3043 3043 3043 3043 3045 3046 3047 3049 3048 3046 3047 3041 3035 3033 3032 3031 3031 3030 3032 3033
3034 3035 3035 3035 3033 3033 3030 3033 3032 3032 3034 3036 3036 3040 3039 3041 3040 3041 3041 3040 3042 3041 3041 3040 3040 3039 3038 3037 3038 3038 3040 3043 3043 3042 3039 3033 3031 3029 3025 3026 3027 3027 3028 3027
3031 3031 3032 3031 3030 3028 3026 3030 3030 3027 3032 3032 3031 3033 3034 3035 3035 3036 3036 3035 3035 3037 3037 3037 3036 3036 3034 3034 3032 3031 3032 3035 3039 3038 3036 3030 3026 3023 3020 3020 3023 3022 3023 3024
3025 3028 3027 3027 3025 3023 3022 3026 3025 3024 3028 3028 3028 3028 3029 3030 3029 3031 3031 3030 3030 3031 3031 3032 3031 3030 3030 3028 3027 3028 3028 3029 3028 3030 3029 3022 3022 3021 3021 3021 3023 3018 3019 3018
3021 3023 3021 3022 3020 3018 3018 3022 3020 3023 3022 3024 3023 3023 3023 3023 3025 3026 3025 3026 3023 3024 3026 3026 3025 3021 3021 3019 3020 3020 3023 3023 3022 3023 3021 3017 3016 3016 3018 3016 3013 3015 3015 3013
3016 3016 3016 3015 3015 3013 3015 3016 3015 3017 3018 3020 3019 3018 3018 3018 3019 3020 3019 3020 3020 3019 3019 3018 3017 3016 3012 3011 3010 3011 3013 3013 3014 3013 3009 3009 3009 3009 3009 3009 3010 3010 3008 3008
3011 3010 3011 3010 3009 3011 3011 3012 3012 3012 3013 3014 3013 3013 3014 3013 3015 3015 3014 3014 3014 3013 3014 3012 3010 3009 3007 3005 3002 3003 3002 3005 3002 3004 3001 3002 3002 3004 3004 3005 3004 3003 3003 3001
3006 3006 3006 3005 3007 3007 3007 3009 3009 3009 3008 3007 3008 3006 3009 3011 3010 3009 3007 3007 3007 3006 3005 3002 2999 3000 2997 2993 2993 2991 2996 2998 2994 2987 2990 2991 2993 2996 2997 2996 2995 2993 2995 2995
3001 3001 3000 3001 3002 3002 3003 3005 3005 3005 3007 3005 3005 3004 3005 3003 3002 3003 3002 3001 2999 2998 2995 2992 2990 2989 2989 2981 2979 2968 2982 2981 2980 2971 2984 2981 2981 2985 2986 2982 2980 2984 2985 2987
2997 2998 2997 2998 2998 2999 3000 3001 3002 3001 3001 3000 2998 2999 2999 2998 2997 2997 2996 2994 2992 2989 2986 2984 2979 2980 2979 2967 2959 2964 2966 2965 2966 2959 2970 2967 2968 2969 2970 2971 2972 2974 2974 2975
2994 2995 2995 2994 2995 2997 2998 2999 2999 2998 2998 2997 2995 2992 2992 2992 2992 2991 2989 2986 2984 2981 2976 2968 2968 2967 2967 2957 2945 2948 2950 2951 2949 2949 2954 2950 2955 2954 2958 2957 2958 2960 2961 2965
2992 2992 2992 2992 2992 2994 2995 2995 2995 2995 2995 2994 2992 2989 2988 2987 2985 2983 2980 2977 2973 2969 2963 2959 2956 2956 2955 2943 2928 2933 2935 2934 2934 2937 2940 2938 2939 2941 2943 2946 2945 2948 2953 2958
2989 2990 2991 2991 2992 2992 2992 2992 2992 2991 2993 2990 2987 2985 2983 2981 2979 2977 2973 2968 2962 2956 2948 2947 2948 2944 2936 2924 2926 2924 2923 2920 2917 2920 2921 2924 2926 2929 2930 2932 2935 2938 2945 2948
2988 2990 2990 2989 2990 2990 2990 2988 2987 2986 2987 2985 2982 2980 2979 2979 2975 2971 2968 2960 2955 2947 2941 2940 2934 2927 2926 2921 2917 2911 2909 2907 2907 2906 2908 2911 2911 2915 2920 2923 2927 2930 2936 2941
2986 2987 2988 2988 2988 2987 2986 2984 2984 2984 2983 2981 2980 2978 2976 2974 2971 2967 2963 2956 2951 2944 2939 2935 2928 2924 2923 2916 2909 2903 2898 2896 2897 2897 2899 2902 2905 2909 2913 2916 2920 2925 2930 2935
2984 2985 2985 2985 2985 2983 2983 2981 2981 2980 2980 2979 2977 2975 2972 2969 2966 2962 2957 2952 2947 2937 2934 2931 2923 2921 2915 2907 2900 2895 2892 2890 2889 2888 2890 2893 2897 2903 2908 2911 2915 2920 2924 2929
2981 2982 2982 2982 2982 2980 2979 2978 2978 2978 2977 2976 2973 2971 2968 2965 2962 2958 2954 2946 2939 2935 2930 2925 2920 2915 2906 2899 2893 2890 2887 2884 2882 2881 2883 2887 2892 2898 2904 2909 2912 2916 2920 2925
2979 2979 2978 2978 2976 2976 2976 2976 2976 2976 2974 2972 2970 2967 2964 2960 2956 2952 2947 2941 2936 2931 2925 2923 2916 2908 2901 2895 2891 2887 2884 2882 2881 2881 2883 2888 2893 2898 2902 2904 2908 2913 2918 2924
2976 2976 2974 2972 2973 2974 2974 2973 2972 2971 2970 2968 2965 2963 2959 2954 2951 2947 2943 2937 2931 2928 2926 2920 2912 2905 2898 2893 2890 2887 2884 2883 2882 2884 2887 2890 2894 2896 2899 2903 2908 2912 2917 2922
2973 2971 2969 2970 2970 2971 2970 2969 2967 2966 2965 2964 2962 2959 2954 2951 2948 2944 2939 2934 2930 2928 2922 2915 2907 2901 2896 2891 2888 2886 2884 2883 2884 2885 2888 2891 2895 2897 2900 2904 2907 2911 2916 2921
2966 2965 2965 2965 2964 2964 2964 2963 2961 2960 2961 2959 2959 2958 2955 2951 2944 2941 2936 2933 2930 2923 2916 2911 2905 2899 2894 2890 2887 2885 2885 2885 2885 2887 2888 2893 2896 2899 2901 2904 2907 2911 2915 2920